| time (UTC) | temp F | wind direction | speed MPH | gust MPH | rain 1hr in | rain 24hr in | rain mn in | humidity % | barometer mb |
| 20260831103055 | 72 | 271 | 0.0 | 0.0 | 0.00 | 0.00 | 0.00 | 95 | 1017.6 |
| 20260831101511 | 72 | 271 | 0.0 | 0.0 | 0.00 | 0.00 | 0.00 | 95 | 1017.4 |
| 20260831100033 | 72 | 271 | 0.0 | 0.0 | 0.00 | 0.00 | 0.00 | 95 | 1017.2 |
| 20260831094549 | 73 | 271 | 0.0 | 0.0 | 0.00 | 0.00 | 0.00 | 95 | 1017.3 |
| 20260831093035 | 73 | 271 | 0.0 | 0.0 | 0.00 | 0.00 | 0.00 | 95 | 1017.2 |
| 20260831091555 | 73 | 271 | 0.0 | 0.0 | 0.00 | 0.00 | 0.00 | 95 | 1017.2 |
| 20260831090022 | 73 | 271 | 0.0 | 0.0 | 0.00 | 0.00 | 0.00 | 95 | 1017.1 |
| 20260831084541 | 73 | 271 | 0.0 | 0.0 | 0.00 | 0.00 | 0.00 | 95 | 1017.0 |
| 20260831083031 | 73 | 271 | 0.0 | 0.0 | 0.00 | 0.00 | 0.00 | 95 | 1017.0 |
| 20260831081549 | 73 | 271 | 0.0 | 0.0 | 0.00 | 0.00 | 0.00 | 95 | 1017.2 |
| 20260831080012 | 73 | 271 | 0.0 | 0.0 | 0.00 | 0.00 | 0.00 | 95 | 1017.1 |
| 20260831074539 | 73 | 271 | 0.0 | 0.0 | 0.00 | 0.00 | 0.00 | 95 | 1017.2 |
| 20260831073030 | 73 | 271 | 0.0 | 0.0 | 0.00 | 0.00 | 0.00 | 94 | 1017.3 |
| 20260831071509 | 73 | 271 | 0.0 | 0.0 | 0.00 | 0.00 | 0.00 | 94 | 1017.4 |
| 20260831070049 | 73 | 271 | 0.0 | 0.0 | 0.00 | 0.00 | 0.00 | 94 | 1017.5 |
| 20260831064510 | 73 | 271 | 0.0 | 0.0 | 0.00 | 0.00 | 0.00 | 94 | 1017.5 |
| 20260831063033 | 74 | 271 | 0.0 | 0.0 | 0.00 | 0.00 | 0.00 | 94 | 1017.5 |
| 20260831061600 | 74 | 271 | 0.0 | 0.0 | 0.00 | 0.00 | 0.00 | 94 | 1017.6 |
| 20260831060037 | 74 | 271 | 0.0 | 0.0 | 0.00 | 0.00 | 0.00 | 94 | 1017.5 |
| 20260831054558 | 74 | 271 | 0.0 | 0.0 | 0.00 | 0.00 | 0.00 | 94 | 1017.6 |
| 20260831053042 | 74 | 271 | 0.0 | 0.0 | 0.00 | 0.00 | 0.00 | 94 | 1017.5 |
| 20260831051620 | 74 | 271 | 0.0 | 0.0 | 0.00 | 0.00 | 0.00 | 93 | 1017.5 |
| 20260831051502 | 74 | 271 | 0.0 | 0.0 | 0.00 | 0.00 | 0.00 | 93 | 1017.6 |
| 20260831050023 | 74 | 271 | 0.0 | 0.0 | 0.00 | 0.00 | 0.00 | 93 | 1017.5 |
| 20260831044601 | 74 | 271 | 0.0 | 0.0 | 0.00 | 0.00 | 0.00 | 93 | 1017.6 |
| 20260831044503 | 74 | 271 | 0.0 | 0.0 | 0.00 | 0.00 | 0.00 | 93 | 1017.6 |
| 20260831043022 | 74 | 271 | 0.0 | 0.0 | 0.00 | 0.00 | 0.00 | 93 | 1017.7 |
| 20260831041605 | 74 | 271 | 0.0 | 0.0 | 0.00 | 0.00 | 0.00 | 93 | 1017.7 |
| 20260831041507 | 74 | 271 | 0.0 | 0.0 | 0.00 | 0.00 | 0.00 | 93 | 1017.8 |
| 20260831040031 | 74 | 271 | 0.0 | 0.0 | 0.00 | 0.00 | 0.00 | 93 | 1017.7 |
| 20260831034506 | 74 | 271 | 0.0 | 0.0 | 0.00 | 0.00 | 0.00 | 92 | 1017.9 |
| 20260831033047 | 74 | 271 | 0.0 | 0.0 | 0.00 | 0.00 | 0.00 | 92 | 1018.0 |
| 20260831031540 | 74 | 271 | 0.0 | 0.0 | 0.00 | 0.00 | 0.00 | 92 | 1018.1 |
| 20260831030109 | 74 | 271 | 0.0 | 0.0 | 0.00 | 0.00 | 0.00 | 91 | 1018.3 |
| 20260831024536 | 74 | 271 | 0.0 | 0.0 | 0.00 | 0.00 | 0.00 | 91 | 1018.6 |
| 20260831023017 | 75 | 271 | 0.0 | 0.0 | 0.00 | 0.00 | 0.00 | 90 | 1018.5 |
| 20260831021543 | 75 | 271 | 0.0 | 0.0 | 0.00 | 0.00 | 0.00 | 90 | 1018.4 |
| 20260831020012 | 75 | 271 | 0.0 | 0.0 | 0.00 | 0.00 | 0.00 | 89 | 1018.5 |
| 20260831014537 | 76 | 271 | 0.0 | 0.0 | 0.00 | 0.00 | 0.00 | 89 | 1018.6 |
| 20260831013029 | 76 | 271 | 0.0 | 0.0 | 0.00 | 0.00 | 0.00 | 88 | 1018.7 |
| 20260831011545 | 76 | 271 | 0.0 | 0.0 | 0.00 | 0.00 | 0.00 | 88 | 1018.8 |
| 20260831010011 | 76 | 273 | 0.0 | 0.0 | 0.00 | 0.00 | 0.00 | 87 | 1018.7 |
| 20260831004547 | 77 | 273 | 0.0 | 0.0 | 0.00 | 0.00 | 0.00 | 86 | 1018.5 |
| 20260831003016 | 77 | 273 | 0.0 | 0.0 | 0.00 | 0.00 | 0.00 | 86 | 1018.3 |
| 20260831001512 | 77 | 273 | 0.0 | 0.0 | 0.00 | 0.00 | 0.00 | 85 | 1018.5 |
| 20260831000031 | 78 | 273 | 0.0 | 0.0 | 0.00 | 0.00 | 0.00 | 84 | 1018.4 |
| 20260830234512 | 78 | 273 | 0.0 | 0.0 | 0.00 | 0.00 | 0.00 | 83 | 1018.3 |
| 20260830233033 | 79 | 273 | 0.0 | 0.0 | 0.00 | 0.00 | 0.00 | 82 | 1018.4 |
| 20260830231524 | 79 | 273 | 0.0 | 2.0 | 0.00 | 0.00 | 0.00 | 81 | 1018.3 |
| 20260830230043 | 80 | 274 | 0.0 | 1.0 | 0.00 | 0.01 | 0.00 | 80 | 1018.3 |
| 20260830224507 | 81 | 281 | 0.0 | 0.0 | 0.00 | 0.01 | 0.00 | 79 | 1018.1 |
| 20260830223027 | 82 | 274 | 0.0 | 0.0 | 0.00 | 0.01 | 0.00 | 78 | 1018.1 |
| 20260830221505 | 83 | 274 | 0.0 | 0.0 | 0.00 | 0.01 | 0.00 | 77 | 1017.9 |
| 20260830220031 | 83 | 274 | 0.0 | 0.0 | 0.00 | 0.01 | 0.00 | 76 | 1017.7 |
| 20260830214546 | 83 | 271 | 0.0 | 0.0 | 0.00 | 0.01 | 0.00 | 74 | 1017.7 |
| 20260830213017 | 84 | 271 | 0.0 | 0.0 | 0.00 | 0.01 | 0.00 | 73 | 1017.8 |
| 20260830211555 | 84 | 269 | 0.0 | 0.0 | 0.00 | 0.01 | 0.00 | 70 | 1017.6 |
| 20260830210023 | 84 | 269 | 0.0 | 1.0 | 0.00 | 0.01 | 0.00 | 64 | 1017.6 |
| 20260830204532 | 85 | 269 | 0.0 | 1.0 | 0.00 | 0.01 | 0.00 | 60 | 1015.9 |
| 20260830203027 | 85 | 300 | 0.0 | 1.0 | 0.00 | 0.01 | 0.00 | 71 | 1016.0 |
| 20260830201542 | 86 | 272 | 0.0 | 1.0 | 0.00 | 0.01 | 0.00 | 61 | 1016.1 |
| 20260830200009 | 85 | 272 | 0.0 | 0.0 | 0.00 | 0.02 | 0.00 | 62 | 1016.4 |
| 20260830194545 | 85 | 273 | 0.0 | 0.0 | 0.00 | 0.02 | 0.00 | 62 | 1016.5 |
| 20260830193021 | 85 | 276 | 0.0 | 0.0 | 0.00 | 0.02 | 0.00 | 64 | 1016.6 |
| 20260830191539 | 85 | 276 | 0.0 | 0.0 | 0.00 | 0.02 | 0.00 | 63 | 1016.9 |
| 20260830190028 | 84 | 276 | 0.0 | 0.0 | 0.00 | 0.02 | 0.00 | 64 | 1017.2 |
| 20260830184556 | 85 | 276 | 0.0 | 0.0 | 0.00 | 0.02 | 0.00 | 62 | 1017.4 |